IRIDIUM 32

Last updated on Wed Nov 29 2017 00:19:02 GMT+0000 (Coordinated Universal Time)

1 24945U 97051B 17332.10669994 .00000163 00000-0 51180-4 0 9995 2 24945 86.3994 218.5634 0001856 84.5513 275.5895 14.34221995 57913
UTC large
Height (km)
Speed (km/s)
/
Latitude / Longitude
Inclination (degrees)
Orbital Period (minutes)
Azimuth
Elevation
Range (km)
Doppler Factor

Next 0 passes for location: London (51.5072 / 0.1276)

Sorry there are no passes over London.